EW5697 Weather Reports


Display with metric or nautical units.
time (UTC)temp
F
wind
direction
speed
MPH
gust
MPH
rain 1hr
in
rain 24hr
in
rain mn
in
humidity
%
barometer
mb
20260502210047 72 258 0.0 12.0 0.00 0.00 0.00 32 1013.6
20260502204534 72 280 0.0 17.0 0.00 0.00 0.00 34 1013.7
20260502203031 72 216 0.0 10.0 0.00 0.00 0.00 32 1013.8
20260502201529 71 136 0.0 4.0 0.00 0.00 0.00 33 1013.9
20260502200028 70 235 0.0 15.0 0.00 0.00 0.00 34 1014.0
20260502194524 70 140 0.0 9.0 0.00 0.00 0.00 41 1014.1
20260502193022 69 142 0.0 6.0 0.00 0.00 0.00 42 1014.1
20260502191519 69 160 1.0 11.0 0.00 0.00 0.00 42 1014.1
20260502190027 69 189 0.0 7.0 0.00 0.00 0.00 43 1014.1
20260502184519 68 164 0.0 4.0 0.00 0.00 0.00 48 1014.2
20260502183013 67 194 0.0 1.0 0.00 0.00 0.00 49 1014.2
20260502181509 66 202 0.0 9.0 0.00 0.00 0.00 50 1014.4
20260502163048 59 189 0.0 1.0 0.00 0.00 0.00 76 1014.6
20260502161551 59 142 0.0 0.0 0.00 0.00 0.00 75 1014.7
20260502151532 54 224 0.0 0.0 0.00 0.00 0.00 79 1014.6
20260502123014 53 212 0.0 0.0 0.00 0.00 0.00 77 1014.3
20260502121507 52 174 0.0 0.0 0.00 0.00 0.00 77 1014.4
20260502114503 50 152 0.0 0.0 0.00 0.00 0.00 75 1014.5
20260502113001 50 152 0.0 0.0 0.00 0.00 0.00 74 1014.6
20260502111600 50 152 0.0 0.0 0.00 0.00 0.00 74 1014.8
20260502110059 50 152 0.0 0.0 0.00 0.00 0.00 75 1014.8
20260502104658 50 152 0.0 0.0 0.00 0.00 0.00 74 1014.8
20260502103056 50 152 0.0 0.0 0.00 0.00 0.00 74 1014.9
20260502101615 50 152 0.0 0.0 0.00 0.00 0.00 73 1015.0
20260502100109 51 152 0.0 0.0 0.00 0.00 0.00 72 1015.1
20260502071534 53 152 0.0 0.0 0.00 0.00 0.00 62 1016.2
20260502070034 54 152 0.0 0.0 0.00 0.00 0.00 60 1016.3
20260502064541 54 152 0.0 0.0 0.00 0.00 0.00 58 1016.2
20260502063031 55 152 0.0 0.0 0.00 0.00 0.00 56 1016.2
20260502061530 56 152 0.0 0.0 0.00 0.00 0.00 55 1016.1
20260502060040 56 151 0.0 0.0 0.00 0.00 0.00 53 1016.1
20260502054527 57 149 0.0 0.0 0.00 0.00 0.00 53 1015.8
20260502053028 57 148 0.0 0.0 0.00 0.00 0.00 53 1015.7
20260502051532 58 148 0.0 0.0 0.00 0.00 0.00 52 1015.6
20260502050027 58 147 0.0 0.0 0.00 0.00 0.00 50 1015.6
20260502044525 59 144 0.0 0.0 0.00 0.00 0.00 48 1015.4
20260502043027 60 170 0.0 0.0 0.00 0.00 0.00 48 1015.3
20260502041532 60 185 0.0 0.0 0.00 0.00 0.00 46 1015.2
20260502040024 61 242 0.0 0.0 0.00 0.00 0.00 46 1015.1
20260502034523 61 171 0.0 0.0 0.00 0.00 0.00 45 1015.0
20260502033028 62 148 0.0 0.0 0.00 0.00 0.00 44 1014.9
20260502031522 63 189 0.0 0.0 0.00 0.00 0.00 43 1014.8
20260502030023 65 151 0.0 0.0 0.00 0.00 0.00 40 1014.8
20260502024521 66 224 0.0 0.0 0.00 0.00 0.00 38 1014.7
20260502023021 67 152 0.0 0.0 0.00 0.00 0.00 36 1014.6
20260502021520 68 146 0.0 0.0 0.00 0.00 0.00 35 1014.6
20260502020019 69 133 0.0 0.0 0.00 0.00 0.00 34 1014.7
20260502014518 70 139 0.0 0.0 0.00 0.00 0.00 33 1014.7
20260502013017 71 193 0.0 0.0 0.00 0.00 0.00 31 1014.8
20260502011518 70 202 0.0 0.0 0.00 0.00 0.00 33 1014.8
20260502010025 71 138 0.0 2.0 0.00 0.00 0.00 33 1014.8
20260502004526 71 241 0.0 0.0 0.00 0.00 0.00 31 1014.9
20260502003013 71 146 0.0 0.0 0.00 0.00 0.00 34 1015.1
20260502001513 70 160 0.0 1.0 0.00 0.00 0.00 32 1015.2
20260502000013 71 99 0.0 0.0 0.00 0.00 0.00 31 1015.1
20260501234513 71 128 0.0 0.0 0.00 0.00 0.00 31 1015.2
20260501233011 71 149 0.0 0.0 0.00 0.00 0.00 30 1015.3
20260501231510 72 141 0.0 7.0 0.00 0.00 0.00 30 1015.4
20260501230014 72 188 0.0 1.0 0.00 0.00 0.00 29 1015.6
20260501224506 73 184 0.0 1.0 0.00 0.00 0.00 29 1015.7
20260501223005 73 218 0.0 0.0 0.00 0.00 0.00 29 1016.0
20260501221502 74 189 0.0 0.0 0.00 0.00 0.00 30 1016.2
20260501220002 73 198 0.0 3.0 0.00 0.00 0.00 29 1016.3
20260501214600 74 162 0.0 3.0 0.00 0.00 0.00 28 1016.5
20260501213107 74 180 0.0 1.0 0.00 0.00 0.00 29 1016.6
20260501211601 75 163 0.0 1.0 0.00 0.00 0.00 32 1016.6